QPF
0.00 0.00 0.00 0.00 0.00 0.01 0.02 0.02 0.01 0.01 0.01 0.01 0.01 0.00 0.01 0.00 0.00 0.00 0.00 0.00 0.00 0.01 0.01 0.01 0.01 0.01 0.01 0.00 0.00 0.00 0.00 0.00 0.00 0.00 0.01 0.01 0.01 0.02 0.02 0.02 0.03 0.03 0.03 0.03 0.02 0.02 0.01 0.01 0.01
0.00 0.01 0.01 0.00 0.01 0.01 0.02 0.02 0.02 0.01 0.01 0.00 0.00 0.00 0.01 0.01 0.00 0.00 0.00 0.00 0.00 0.00 0.00 0.00 0.01 0.01 0.01 0.01 0.01 0.01 0.01 0.01 0.00 0.00 0.01 0.01 0.01 0.02 0.03 0.03 0.02 0.02 0.02 0.02 0.02 0.01 0.01 0.01 0.01
0.00 0.01 0.01 0.01 0.01 0.03 0.04 0.03 0.02 0.02 0.01 0.00 0.00 0.00 0.01 0.01 0.00 0.00 0.00 0.00 0.00 0.00 0.00 0.01 0.01 0.01 0.01 0.01 0.01 0.01 0.01 0.01 0.00 0.00 0.01 0.01 0.02 0.03 0.03 0.02 0.02 0.02 0.01 0.02 0.01 0.01 0.01 0.02 0.02
0.00 0.01 0.01 0.01 0.01 0.02 0.02 0.02 0.02 0.01 0.01 0.00 0.00 0.01 0.01 0.01 0.01 0.01 0.00 0.00 0.01 0.01 0.00 0.01 0.01 0.01 0.01 0.01 0.01 0.01 0.01 0.01 0.00 0.00 0.01 0.02 0.02 0.02 0.02 0.02 0.02 0.02 0.01 0.01 0.01 0.02 0.02 0.03 0.02
0.00 0.01 0.01 0.02 0.01 0.01 0.02 0.02 0.02 0.01 0.01 0.00 0.00 0.01 0.02 0.03 0.02 0.03 0.02 0.01 0.02 0.02 0.01 0.01 0.01 0.01 0.01 0.01 0.01 0.01 0.01 0.01 0.01 0.01 0.01 0.02 0.01 0.02 0.02 0.02 0.02 0.01 0.01 0.01 0.01 0.02 0.03 0.03 0.03
0.00 0.01 0.01 0.02 0.01 0.02 0.03 0.03 0.03 0.02 0.01 0.00 0.00 0.01 0.02 0.02 0.01 0.05 0.08 0.04 0.04 0.04 0.03 0.03 0.03 0.01 0.01 0.01 0.00 0.01 0.01 0.01 0.01 0.01 0.01 0.01 0.01 0.02 0.02 0.01 0.02 0.02 0.01 0.02 0.02 0.02 0.04 0.04 0.04
0.00 0.01 0.01 0.01 0.01 0.02 0.02 0.03 0.03 0.01 0.01 0.00 0.00 0.00 0.01 0.02 0.01 0.03 0.07 0.03 0.02 0.03 0.03 0.03 0.02 0.01 0.01 0.00 0.01 0.01 0.01 0.01 0.01 0.01 0.01 0.01 0.02 0.02 0.01 0.02 0.02 0.02 0.01 0.02 0.03 0.02 0.03 0.03 0.04
0.00 0.00 0.00 0.00 0.01 0.02 0.02 0.03 0.03 0.04 0.02 0.00 0.00 0.00 0.00 0.01 0.01 0.01 0.02 0.02 0.02 0.02 0.03 0.04 0.02 0.01 0.01 0.01 0.01 0.01 0.01 0.01 0.01 0.01 0.01 0.02 0.03 0.02 0.02 0.02 0.02 0.02 0.01 0.02 0.02 0.02 0.03 0.03 0.04
0.00 0.00 0.00 0.00 0.01 0.02 0.03 0.02 0.03 0.02 0.02 0.00 0.00 0.00 0.00 0.00 0.00 0.01 0.01 0.02 0.01 0.01 0.02 0.03 0.02 0.01 0.01 0.01 0.01 0.02 0.02 0.01 0.01 0.01 0.02 0.02 0.02 0.02 0.01 0.01 0.03 0.02 0.01 0.02 0.03 0.03 0.03 0.03 0.04
0.00 0.00 0.00 0.00 0.01 0.03 0.03 0.02 0.02 0.04 0.03 0.01 0.00 0.00 0.00 0.00 0.00 0.01 0.02 0.01 0.01 0.01 0.01 0.01 0.01 0.01 0.00 0.00 0.01 0.01 0.02 0.01 0.01 0.01 0.01 0.01 0.01 0.01 0.01 0.02 0.04 0.03 0.02 0.03 0.02 0.02 0.02 0.01 0.02
0.00 0.00 0.00 0.00 0.00 0.00 0.01 0.02 0.01 0.03 0.02 0.00 0.00 0.00 0.00 0.00 0.00 0.01 0.05 0.05 0.01 0.01 0.00 0.00 0.00 0.01 0.01 0.00 0.00 0.00 0.00 0.01 0.01 0.01 0.01 0.00 0.01 0.01 0.01 0.02 0.03 0.03 0.03 0.02 0.01 0.01 0.01 0.01 0.01
0.00 0.00 0.00 0.00 0.00 0.00 0.00 0.01 0.01 0.01 0.00 0.00 0.00 0.00 0.00 0.00 0.00 0.00 0.01 0.03 0.00 0.00 0.00 0.01 0.00 0.00 0.01 0.00 0.00 0.00 0.00 0.00 0.00 0.01 0.01 0.01 0.01 0.01 0.02 0.02 0.02 0.02 0.01 0.01 0.01 0.01 0.01 0.01 0.02
0.00 0.00 0.00 0.00 0.00 0.01 0.01 0.01 0.00 0.00 0.00 0.00 0.00 0.00 0.00 0.00 0.00 0.00 0.00 0.00 0.01 0.00 0.00 0.01 0.01 0.01 0.01 0.01 0.02 0.02 0.01 0.01 0.01 0.01 0.02 0.02 0.02 0.02 0.02 0.02 0.01 0.01 0.01 0.01 0.01 0.01 0.02 0.01 0.02
0.00 0.00 0.00 0.00 0.01 0.00 0.00 0.00 0.00 0.00 0.00 0.00 0.00 0.00 0.00 0.00 0.00 0.00 0.00 0.01 0.01 0.01 0.01 0.02 0.03 0.04 0.03 0.04 0.04 0.02 0.01 0.01 0.01 0.02 0.02 0.02 0.02 0.03 0.03 0.03 0.01 0.01 0.01 0.01 0.01 0.01 0.01 0.01 0.02
0.00 0.00 0.00 0.00 0.00 0.00 0.00 0.00 0.00 0.00 0.00 0.00 0.00 0.01 0.00 0.00 0.00 0.00 0.01 0.02 0.04 0.03 0.02 0.05 0.06 0.06 0.05 0.05 0.05 0.03 0.02 0.01 0.02 0.03 0.02 0.03 0.03 0.03 0.03 0.03 0.02 0.02 0.01 0.01 0.01 0.02 0.02 0.02 0.03
0.00 0.00 0.00 0.00 0.00 0.00 0.00 0.01 0.00 0.00 0.00 0.01 0.01 0.01 0.01 0.01 0.01 0.01 0.01 0.03 0.05 0.05 0.06 0.08 0.07 0.10 0.09 0.06 0.05 0.04 0.05 0.04 0.05 0.05 0.04 0.04 0.03 0.03 0.03 0.02 0.02 0.03 0.03 0.02 0.02 0.02 0.02 0.02 0.03
0.00 0.00 0.00 0.00 0.00 0.00 0.00 0.01 0.01 0.01 0.01 0.01 0.01 0.01 0.01 0.01 0.01 0.02 0.03 0.03 0.06 0.09 0.11 0.12 0.13 0.13 0.09 0.08 0.09 0.09 0.10 0.09 0.08 0.08 0.06 0.04 0.04 0.03 0.04 0.03 0.03 0.03 0.03 0.03 0.01 0.02 0.03 0.04 0.04
0.00 0.00 0.00 0.00 0.00 0.00 0.00 0.00 0.01 0.01 0.01 0.01 0.01 0.01 0.01 0.01 0.02 0.02 0.03 0.05 0.10 0.16 0.16 0.20 0.17 0.15 0.11 0.10 0.10 0.10 0.11 0.10 0.09 0.08 0.07 0.06 0.06 0.04 0.04 0.04 0.05 0.04 0.03 0.03 0.02 0.01 0.02 0.04 0.04
0.00 0.00 0.00 0.00 0.00 0.00 0.00 0.00 0.00 0.00 0.01 0.01 0.01 0.01 0.01 0.01 0.01 0.02 0.05 0.10 0.12 0.14 0.14 0.13 0.14 0.15 0.13 0.09 0.07 0.09 0.09 0.08 0.08 0.08 0.08 0.06 0.06 0.06 0.05 0.05 0.05 0.03 0.03 0.02 0.03 0.03 0.03 0.05 0.04
0.00 0.00 0.00 0.00 0.00 0.00 0.00 0.00 0.00 0.00 0.00 0.01 0.01 0.01 0.02 0.01 0.02 0.03 0.05 0.07 0.07 0.08 0.09 0.12 0.13 0.14 0.12 0.12 0.11 0.11 0.10 0.09 0.10 0.10 0.09 0.06 0.06 0.06 0.05 0.05 0.05 0.03 0.02 0.03 0.03 0.03 0.03 0.04 0.04
0.00 0.00 0.00 0.00 0.00 0.00 0.00 0.00 0.00 0.00 0.01 0.01 0.01 0.02 0.02 0.02 0.03 0.05 0.05 0.07 0.07 0.10 0.11 0.10 0.12 0.14 0.13 0.14 0.14 0.11 0.10 0.10 0.08 0.08 0.09 0.08 0.07 0.06 0.05 0.04 0.05 0.04 0.03 0.03 0.03 0.04 0.04 0.04 0.03
0.00 0.00 0.00 0.00 0.00 0.00 0.00 0.00 0.00 0.00 0.01 0.01 0.02 0.02 0.03 0.03 0.03 0.05 0.05 0.06 0.06 0.09 0.11 0.11 0.11 0.13 0.13 0.12 0.13 0.09 0.06 0.04 0.04 0.07 0.09 0.09 0.08 0.07 0.07 0.07 0.06 0.05 0.04 0.04 0.04 0.04 0.04 0.04 0.04
0.00 0.00 0.00 0.00 0.00 0.00 0.00 0.00 0.00 0.00 0.00 0.01 0.01 0.02 0.03 0.04 0.04 0.04 0.06 0.06 0.05 0.08 0.11 0.13 0.12 0.12 0.11 0.10 0.10 0.11 0.09 0.07 0.07 0.09 0.11 0.10 0.10 0.08 0.07 0.07 0.08 0.07 0.06 0.05 0.05 0.05 0.04 0.03 0.04
0.00 0.00 0.00 0.00 0.00 0.00 0.00 0.00 0.00 0.00 0.00 0.01 0.01 0.02 0.03 0.04 0.04 0.05 0.06 0.06 0.06 0.07 0.09 0.09 0.08 0.09 0.10 0.10 0.10 0.09 0.08 0.07 0.05 0.05 0.08 0.09 0.11 0.10 0.08 0.08 0.10 0.10 0.08 0.06 0.05 0.05 0.04 0.04 0.04
0.00 0.00 0.00 0.00 0.00 0.00 0.00 0.00 0.00 0.00 0.00 0.01 0.01 0.02 0.03 0.04 0.04 0.04 0.05 0.07 0.08 0.07 0.06 0.06 0.06 0.08 0.10 0.11 0.10 0.11 0.09 0.07 0.05 0.04 0.05 0.06 0.07 0.08 0.09 0.09 0.11 0.12 0.11 0.08 0.07 0.06 0.05 0.05 0.04
0.00 0.00 0.00 0.00 0.00 0.00 0.00 0.00 0.00 0.00 0.00 0.01 0.01 0.01 0.02 0.03 0.04 0.05 0.05 0.06 0.07 0.07 0.06 0.06 0.06 0.07 0.09 0.10 0.09 0.10 0.09 0.06 0.05 0.05 0.04 0.03 0.04 0.07 0.12 0.13 0.14 0.14 0.14 0.12 0.09 0.08 0.07 0.06 0.06
0.00 0.00 0.00 0.00 0.00 0.00 0.00 0.00 0.00 0.00 0.01 0.01 0.01 0.01 0.03 0.04 0.05 0.05 0.05 0.05 0.05 0.05 0.05 0.05 0.05 0.06 0.07 0.07 0.07 0.08 0.08 0.06 0.06 0.06 0.05 0.04 0.05 0.09 0.12 0.14 0.13 0.12 0.11 0.10 0.10 0.09 0.09 0.08 0.07
0.00 0.00 0.00 0.00 0.00 0.00 0.00 0.00 0.00 0.00 0.01 0.01 0.01 0.02 0.03 0.04 0.05 0.06 0.05 0.04 0.03 0.02 0.03 0.04 0.05 0.06 0.06 0.06 0.05 0.05 0.05 0.04 0.05 0.06 0.06 0.05 0.07 0.08 0.08 0.08 0.09 0.10 0.09 0.09 0.10 0.10 0.10 0.10 0.09
0.00 0.00 0.00 0.00 0.00 0.00 0.00 0.00 0.00 0.00 0.01 0.01 0.03 0.04 0.03 0.03 0.04 0.05 0.05 0.03 0.04 0.04 0.05 0.06 0.06 0.06 0.06 0.06 0.04 0.03 0.03 0.03 0.03 0.04 0.06 0.07 0.07 0.07 0.07 0.07 0.08 0.10 0.08 0.08 0.09 0.09 0.10 0.10 0.09
0.00 0.00 0.00 0.00 0.00 0.00 0.00 0.00 0.00 0.00 0.01 0.02 0.03 0.03 0.04 0.04 0.04 0.06 0.07 0.06 0.08 0.07 0.08 0.08 0.08 0.07 0.06 0.06 0.05 0.04 0.03 0.04 0.04 0.05 0.05 0.06 0.06 0.05 0.06 0.08 0.09 0.10 0.10 0.09 0.09 0.10 0.09 0.09 0.09
MSLP
1009.06 1010.07 1011.17 1012.18 1012.96 1013.41 1013.49 1013.28 1012.89 1012.48 1012.18 1012.10 1012.25 1012.61 1013.06 1013.48 1013.78 1013.86 1013.73 1013.44 1013.08 1012.76 1012.57 1012.57 1012.77 1013.12 1013.54 1013.96 1014.30 1014.53 1014.63 1014.65 1014.63 1014.62 1014.66 1014.77 1014.94 1015.14 1015.33 1015.50 1015.61 1015.68 1015.73 1015.77 1015.82 1015.91 1016.04 1016.20 1016.38
1009.50 1010.66 1011.83 1012.83 1013.50 1013.78 1013.66 1013.22 1012.62 1012.03 1011.60 1011.44 1011.56 1011.93 1012.42 1012.91 1013.27 1013.44 1013.38 1013.17 1012.88 1012.62 1012.48 1012.53 1012.76 1013.14 1013.60 1014.04 1014.41 1014.68 1014.82 1014.89 1014.91 1014.95 1015.02 1015.15 1015.32 1015.50 1015.68 1015.82 1015.91 1015.97 1016.01 1016.06 1016.13 1016.24 1016.38 1016.56 1016.74
1010.12 1011.37 1012.56 1013.48 1014.02 1014.12 1013.79 1013.16 1012.39 1011.67 1011.15 1010.95 1011.06 1011.44 1011.96 1012.49 1012.91 1013.13 1013.14 1013.00 1012.77 1012.58 1012.49 1012.58 1012.85 1013.24 1013.71 1014.16 1014.55 1014.83 1015.01 1015.11 1015.17 1015.23 1015.33 1015.46 1015.62 1015.78 1015.93 1016.05 1016.13 1016.19 1016.24 1016.30 1016.40 1016.54 1016.71 1016.90 1017.10
1010.86 1012.15 1013.29 1014.11 1014.49 1014.41 1013.92 1013.15 1012.26 1011.47 1010.92 1010.70 1010.81 1011.19 1011.73 1012.28 1012.73 1012.98 1013.05 1012.96 1012.80 1012.67 1012.64 1012.76 1013.05 1013.45 1013.90 1014.35 1014.72 1015.00 1015.19 1015.31 1015.39 1015.47 1015.57 1015.70 1015.85 1016.00 1016.13 1016.23 1016.30 1016.37 1016.44 1016.54 1016.68 1016.85 1017.05 1017.27 1017.48
1011.62 1012.88 1013.93 1014.62 1014.86 1014.63 1014.02 1013.17 1012.25 1011.45 1010.91 1010.71 1010.84 1011.22 1011.75 1012.29 1012.73 1013.00 1013.10 1013.06 1012.96 1012.89 1012.92 1013.08 1013.37 1013.76 1014.18 1014.59 1014.93 1015.18 1015.35 1015.47 1015.56 1015.65 1015.77 1015.90 1016.04 1016.18 1016.30 1016.40 1016.48 1016.56 1016.67 1016.81 1016.99 1017.20 1017.44 1017.67 1017.89
1012.28 1013.46 1014.38 1014.93 1015.03 1014.71 1014.05 1013.20 1012.31 1011.58 1011.11 1010.95 1011.10 1011.48 1011.98 1012.48 1012.89 1013.15 1013.26 1013.27 1013.23 1013.23 1013.31 1013.50 1013.79 1014.15 1014.53 1014.87 1015.15 1015.36 1015.50 1015.60 1015.70 1015.80 1015.93 1016.08 1016.23 1016.37 1016.50 1016.60 1016.70 1016.81 1016.94 1017.12 1017.34 1017.59 1017.84 1018.09 1018.32
1012.74 1013.78 1014.55 1014.95 1014.95 1014.58 1013.94 1013.15 1012.38 1011.76 1011.40 1011.31 1011.49 1011.86 1012.31 1012.76 1013.13 1013.37 1013.49 1013.53 1013.56 1013.62 1013.75 1013.97 1014.26 1014.58 1014.89 1015.16 1015.37 1015.52 1015.62 1015.72 1015.82 1015.95 1016.10 1016.28 1016.45 1016.61 1016.75 1016.86 1016.98 1017.10 1017.26 1017.46 1017.70 1017.97 1018.24 1018.49 1018.72
1012.92 1013.80 1014.40 1014.67 1014.59 1014.21 1013.63 1012.97 1012.35 1011.89 1011.66 1011.66 1011.87 1012.23 1012.64 1013.03 1013.34 1013.56 1013.69 1013.78 1013.87 1014.00 1014.18 1014.43 1014.71 1014.99 1015.24 1015.44 1015.57 1015.67 1015.74 1015.82 1015.94 1016.10 1016.30 1016.52 1016.73 1016.91 1017.06 1017.19 1017.31 1017.44 1017.60 1017.80 1018.05 1018.32 1018.59 1018.84 1019.05
1012.84 1013.54 1013.97 1014.11 1013.97 1013.61 1013.12 1012.60 1012.16 1011.87 1011.78 1011.88 1012.13 1012.47 1012.85 1013.19 1013.46 1013.66 1013.82 1013.95 1014.10 1014.30 1014.54 1014.82 1015.09 1015.34 1015.54 1015.67 1015.75 1015.80 1015.85 1015.94 1016.09 1016.29 1016.54 1016.80 1017.05 1017.26 1017.43 1017.55 1017.66 1017.77 1017.92 1018.10 1018.33 1018.59 1018.85 1019.10 1019.30
1012.59 1013.09 1013.35 1013.38 1013.18 1012.85 1012.45 1012.07 1011.79 1011.66 1011.70 1011.88 1012.17 1012.52 1012.86 1013.17 1013.42 1013.62 1013.80 1013.99 1014.22 1014.48 1014.78 1015.09 1015.37 1015.60 1015.76 1015.85 1015.89 1015.92 1015.97 1016.08 1016.26 1016.51 1016.81 1017.12 1017.40 1017.63 1017.80 1017.92 1018.00 1018.08 1018.19 1018.35 1018.55 1018.78 1019.03 1019.27 1019.48
1012.30 1012.62 1012.72 1012.62 1012.37 1012.04 1011.70 1011.43 1011.28 1011.27 1011.41 1011.66 1011.98 1012.33 1012.66 1012.95 1013.20 1013.43 1013.65 1013.90 1014.19 1014.52 1014.87 1015.21 1015.51 1015.74 1015.89 1015.97 1016.00 1016.03 1016.09 1016.23 1016.45 1016.74 1017.08 1017.43 1017.74 1017.98 1018.15 1018.25 1018.30 1018.35 1018.42 1018.53 1018.70 1018.91 1019.15 1019.39 1019.60
1012.12 1012.27 1012.22 1012.00 1011.68 1011.33 1011.01 1010.80 1010.72 1010.78 1010.97 1011.26 1011.60 1011.96 1012.29 1012.58 1012.85 1013.10 1013.37 1013.68 1014.02 1014.41 1014.81 1015.19 1015.52 1015.77 1015.93 1016.02 1016.07 1016.13 1016.22 1016.39 1016.64 1016.96 1017.33 1017.70 1018.02 1018.27 1018.43 1018.51 1018.55 1018.56 1018.60 1018.68 1018.82 1019.02 1019.25 1019.49 1019.72
1012.18 1012.19 1011.99 1011.65 1011.24 1010.83 1010.50 1010.28 1010.21 1010.29 1010.49 1010.79 1011.13 1011.48 1011.82 1012.13 1012.42 1012.71 1013.02 1013.36 1013.75 1014.18 1014.61 1015.03 1015.39 1015.68 1015.88 1016.02 1016.11 1016.21 1016.34 1016.54 1016.81 1017.15 1017.52 1017.88 1018.21 1018.46 1018.62 1018.70 1018.72 1018.73 1018.75 1018.82 1018.95 1019.14 1019.38 1019.63 1019.88
1012.53 1012.41 1012.09 1011.64 1011.14 1010.65 1010.26 1009.99 1009.87 1009.91 1010.08 1010.35 1010.68 1011.02 1011.37 1011.69 1012.01 1012.32 1012.65 1013.01 1013.42 1013.86 1014.31 1014.75 1015.15 1015.48 1015.75 1015.96 1016.12 1016.27 1016.44 1016.66 1016.93 1017.25 1017.61 1017.96 1018.27 1018.52 1018.69 1018.79 1018.83 1018.86 1018.90 1018.98 1019.12 1019.32 1019.56 1019.83 1020.10
1013.11 1012.89 1012.48 1011.94 1011.35 1010.79 1010.31 1009.96 1009.77 1009.73 1009.84 1010.05 1010.35 1010.68 1011.02 1011.36 1011.68 1012.00 1012.33 1012.68 1013.07 1013.49 1013.93 1014.38 1014.82 1015.21 1015.55 1015.84 1016.08 1016.29 1016.50 1016.73 1016.98 1017.27 1017.59 1017.90 1018.20 1018.45 1018.64 1018.78 1018.87 1018.95 1019.04 1019.16 1019.32 1019.54 1019.80 1020.09 1020.37
1013.79 1013.51 1013.04 1012.45 1011.81 1011.19 1010.64 1010.20 1009.92 1009.79 1009.81 1009.95 1010.20 1010.50 1010.83 1011.16 1011.48 1011.79 1012.09 1012.40 1012.74 1013.11 1013.53 1013.97 1014.43 1014.88 1015.30 1015.68 1016.00 1016.28 1016.52 1016.74 1016.96 1017.20 1017.46 1017.73 1018.00 1018.25 1018.48 1018.68 1018.85 1019.00 1019.16 1019.33 1019.54 1019.79 1020.06 1020.36 1020.65
1014.42 1014.11 1013.64 1013.05 1012.40 1011.76 1011.16 1010.66 1010.28 1010.06 1009.98 1010.05 1010.23 1010.49 1010.80 1011.12 1011.42 1011.70 1011.95 1012.20 1012.46 1012.77 1013.13 1013.55 1014.02 1014.52 1015.01 1015.48 1015.88 1016.22 1016.48 1016.69 1016.88 1017.05 1017.24 1017.45 1017.69 1017.95 1018.22 1018.49 1018.75 1019.00 1019.24 1019.48 1019.73 1020.00 1020.29 1020.59 1020.87
1014.85 1014.57 1014.14 1013.61 1013.02 1012.41 1011.81 1011.27 1010.82 1010.49 1010.32 1010.29 1010.40 1010.61 1010.88 1011.18 1011.46 1011.70 1011.90 1012.07 1012.25 1012.47 1012.77 1013.15 1013.62 1014.15 1014.71 1015.24 1015.72 1016.11 1016.40 1016.59 1016.73 1016.83 1016.95 1017.10 1017.31 1017.58 1017.89 1018.23 1018.58 1018.92 1019.25 1019.55 1019.84 1020.13 1020.42 1020.71 1020.99
1015.00 1014.79 1014.48 1014.08 1013.61 1013.08 1012.52 1011.96 1011.45 1011.03 1010.75 1010.61 1010.63 1010.78 1011.01 1011.28 1011.54 1011.75 1011.90 1012.01 1012.11 1012.24 1012.46 1012.79 1013.25 1013.79 1014.39 1014.99 1015.52 1015.95 1016.26 1016.44 1016.53 1016.57 1016.62 1016.72 1016.90 1017.17 1017.51 1017.92 1018.35 1018.77 1019.16 1019.52 1019.84 1020.13 1020.42 1020.70 1020.97
1014.89 1014.81 1014.67 1014.46 1014.16 1013.77 1013.27 1012.72 1012.15 1011.62 1011.21 1010.95 1010.86 1010.92 1011.11 1011.35 1011.60 1011.79 1011.91 1011.98 1012.02 1012.08 1012.23 1012.51 1012.93 1013.46 1014.08 1014.71 1015.28 1015.75 1016.06 1016.24 1016.29 1016.29 1016.28 1016.33 1016.48 1016.75 1017.12 1017.57 1018.05 1018.53 1018.97 1019.36 1019.70 1019.99 1020.26 1020.52 1020.79
1014.60 1014.70 1014.79 1014.82 1014.73 1014.49 1014.08 1013.52 1012.88 1012.23 1011.66 1011.24 1011.01 1010.98 1011.11 1011.33 1011.58 1011.79 1011.92 1011.97 1011.98 1012.00 1012.09 1012.30 1012.67 1013.18 1013.78 1014.42 1015.00 1015.48 1015.81 1015.98 1016.02 1015.98 1015.94 1015.96 1016.09 1016.35 1016.73 1017.20 1017.72 1018.23 1018.70 1019.10 1019.43 1019.71 1019.96 1020.21 1020.47
1014.27 1014.60 1014.95 1015.25 1015.39 1015.31 1014.97 1014.39 1013.64 1012.83 1012.07 1011.46 1011.07 1010.93 1010.99 1011.20 1011.47 1011.72 1011.89 1011.97 1011.99 1011.98 1012.03 1012.18 1012.49 1012.94 1013.50 1014.10 1014.68 1015.16 1015.49 1015.67 1015.70 1015.66 1015.61 1015.61 1015.73 1015.98 1016.36 1016.84 1017.37 1017.89 1018.36 1018.76 1019.08 1019.34 1019.57 1019.80 1020.06
1014.05 1014.63 1015.27 1015.83 1016.19 1016.25 1015.96 1015.33 1014.44 1013.43 1012.45 1011.63 1011.06 1010.78 1010.78 1010.98 1011.29 1011.61 1011.85 1012.00 1012.04 1012.04 1012.05 1012.14 1012.37 1012.74 1013.23 1013.78 1014.32 1014.78 1015.12 1015.30 1015.35 1015.32 1015.27 1015.28 1015.39 1015.64 1016.02 1016.49 1017.01 1017.52 1017.98 1018.37 1018.67 1018.91 1019.12 1019.35 1019.61
1014.01 1014.86 1015.77 1016.58 1017.13 1017.29 1017.01 1016.29 1015.25 1014.03 1012.81 1011.76 1011.00 1010.59 1010.52 1010.72 1011.08 1011.48 1011.83 1012.05 1012.16 1012.17 1012.15 1012.18 1012.32 1012.59 1012.98 1013.45 1013.93 1014.36 1014.69 1014.88 1014.96 1014.96 1014.93 1014.96 1015.08 1015.32 1015.69 1016.15 1016.65 1017.15 1017.59 1017.96 1018.25 1018.48 1018.68 1018.90 1019.16
1014.17 1015.26 1016.41 1017.42 1018.11 1018.34 1018.03 1017.22 1016.01 1014.58 1013.13 1011.87 1010.94 1010.42 1010.29 1010.49 1010.91 1011.40 1011.84 1012.16 1012.33 1012.36 1012.32 1012.29 1012.33 1012.49 1012.77 1013.14 1013.55 1013.93 1014.24 1014.45 1014.55 1014.58 1014.59 1014.64 1014.77 1015.02 1015.37 1015.81 1016.29 1016.77 1017.20 1017.55 1017.84 1018.06 1018.27 1018.48 1018.75
1014.47 1015.75 1017.08 1018.23 1019.00 1019.24 1018.89 1017.98 1016.63 1015.02 1013.40 1011.98 1010.92 1010.30 1010.14 1010.36 1010.83 1011.40 1011.94 1012.33 1012.55 1012.61 1012.55 1012.45 1012.40 1012.44 1012.60 1012.87 1013.19 1013.52 1013.81 1014.02 1014.15 1014.22 1014.26 1014.34 1014.48 1014.72 1015.06 1015.48 1015.93 1016.39 1016.80 1017.15 1017.44 1017.67 1017.89 1018.11 1018.37
1014.78 1016.18 1017.60 1018.81 1019.60 1019.83 1019.44 1018.45 1017.00 1015.29 1013.57 1012.06 1010.93 1010.28 1010.11 1010.35 1010.87 1011.50 1012.10 1012.56 1012.82 1012.89 1012.80 1012.65 1012.51 1012.45 1012.50 1012.66 1012.90 1013.18 1013.44 1013.65 1013.80 1013.89 1013.96 1014.05 1014.20 1014.43 1014.75 1015.14 1015.57 1016.00 1016.41 1016.76 1017.06 1017.31 1017.53 1017.77 1018.03
1014.99 1016.41 1017.83 1019.02 1019.78 1019.96 1019.52 1018.50 1017.03 1015.30 1013.58 1012.07 1010.96 1010.33 1010.19 1010.46 1011.01 1011.69 1012.33 1012.82 1013.10 1013.16 1013.05 1012.85 1012.64 1012.50 1012.46 1012.53 1012.71 1012.93 1013.17 1013.37 1013.53 1013.64 1013.72 1013.82 1013.96 1014.17 1014.45 1014.81 1015.21 1015.62 1016.01 1016.37 1016.68 1016.95 1017.20 1017.45 1017.72
1015.01 1016.35 1017.66 1018.75 1019.41 1019.54 1019.08 1018.07 1016.65 1015.01 1013.39 1012.00 1010.98 1010.43 1010.35 1010.66 1011.24 1011.93 1012.57 1013.06 1013.33 1013.39 1013.26 1013.03 1012.77 1012.58 1012.48 1012.50 1012.63 1012.82 1013.03 1013.22 1013.38 1013.49 1013.57 1013.66 1013.78 1013.95 1014.20 1014.51 1014.87 1015.25 1015.63 1015.99 1016.31 1016.60 1016.87 1017.13 1017.40
1014.82 1015.98 1017.11 1018.02 1018.55 1018.60 1018.13 1017.19 1015.90 1014.43 1013.00 1011.79 1010.94 1010.52 1010.53 1010.88 1011.47 1012.15 1012.77 1013.23 1013.49 1013.52 1013.39 1013.15 1012.88 1012.67 1012.55 1012.55 1012.65 1012.82 1013.01 1013.19 1013.34 1013.44 1013.52 1013.58 1013.67 1013.81 1014.00 1014.27 1014.58 1014.93 1015.29 1015.64 1015.96 1016.26 1016.55 1016.82 1017.10
Thickness
5829 5829 5826 5815 5791 5766 5760 5770 5781 5782 5785 5793 5795 5789 5779 5771 5764 5760 5775 5784 5783 5780 5777 5774 5772 5770 5768 5767 5767 5767 5766 5766 5766 5765 5764 5764 5763 5761 5760 5759 5758 5757 5756 5754 5753 5752 5750 5749 5748
5831 5829 5820 5803 5773 5749 5758 5776 5779 5785 5792 5797 5795 5789 5779 5773 5777 5776 5778 5782 5782 5779 5776 5773 5771 5769 5767 5766 5765 5765 5765 5764 5764 5763 5762 5762 5761 5759 5758 5757 5756 5755 5754 5752 5750 5749 5748 5746 5745
5832 5829 5808 5788 5767 5755 5763 5780 5785 5793 5800 5798 5790 5788 5780 5774 5779 5778 5781 5783 5781 5778 5775 5772 5770 5768 5766 5765 5764 5763 5762 5762 5761 5761 5760 5759 5758 5758 5756 5755 5754 5753 5751 5750 5748 5747 5745 5744 5743
5829 5816 5802 5780 5769 5776 5781 5788 5793 5793 5796 5798 5790 5780 5782 5786 5785 5784 5784 5782 5778 5776 5773 5771 5768 5766 5765 5763 5762 5761 5760 5760 5759 5758 5758 5757 5757 5755 5754 5753 5752 5750 5748 5747 5746 5744 5743 5742 5741
5824 5803 5781 5767 5773 5785 5794 5798 5798 5791 5790 5792 5789 5776 5774 5784 5788 5786 5783 5780 5776 5774 5771 5769 5767 5765 5763 5762 5761 5759 5759 5758 5757 5756 5756 5755 5754 5753 5752 5751 5749 5748 5746 5745 5744 5742 5741 5740 5739
5806 5793 5767 5761 5774 5789 5797 5802 5799 5792 5791 5793 5787 5776 5772 5782 5784 5782 5781 5778 5775 5772 5770 5768 5765 5763 5762 5761 5759 5758 5757 5756 5756 5755 5754 5753 5752 5751 5750 5749 5747 5746 5744 5743 5741 5740 5739 5738 5737
5799 5783 5770 5771 5774 5784 5797 5804 5798 5792 5790 5792 5792 5775 5773 5779 5782 5782 5779 5776 5773 5771 5768 5766 5764 5762 5761 5759 5758 5757 5756 5755 5754 5753 5752 5751 5750 5749 5748 5747 5745 5744 5742 5741 5739 5738 5738 5737 5736
5809 5787 5774 5771 5775 5783 5801 5804 5804 5798 5793 5802 5797 5778 5772 5780 5783 5780 5776 5773 5770 5768 5766 5764 5763 5761 5759 5758 5757 5756 5754 5753 5752 5751 5750 5749 5748 5747 5746 5745 5743 5742 5740 5739 5738 5737 5736 5735 5735
5813 5779 5768 5777 5781 5790 5803 5800 5803 5808 5802 5800 5800 5794 5791 5788 5783 5776 5771 5768 5766 5765 5765 5763 5762 5760 5758 5756 5755 5754 5753 5751 5750 5749 5748 5747 5746 5745 5744 5743 5742 5741 5739 5738 5737 5736 5735 5734 5734
5801 5776 5785 5798 5801 5802 5805 5802 5801 5799 5794 5793 5793 5795 5793 5787 5780 5774 5769 5766 5765 5764 5763 5763 5761 5759 5757 5755 5754 5752 5751 5749 5748 5747 5746 5745 5744 5743 5742 5742 5741 5740 5738 5737 5736 5734 5734 5733 5732
5803 5792 5801 5808 5813 5812 5806 5805 5807 5796 5788 5794 5793 5791 5789 5784 5779 5774 5771 5769 5768 5766 5764 5762 5761 5759 5756 5754 5753 5751 5749 5747 5746 5745 5744 5743 5742 5741 5740 5740 5739 5739 5737 5736 5734 5733 5733 5732 5731
5804 5806 5810 5813 5817 5813 5809 5807 5802 5800 5803 5812 5807 5800 5792 5784 5780 5777 5774 5771 5769 5766 5764 5762 5761 5758 5756 5754 5752 5749 5747 5746 5745 5744 5743 5742 5740 5739 5739 5738 5738 5737 5736 5735 5734 5732 5732 5731 5731
5804 5807 5814 5817 5816 5815 5812 5806 5804 5804 5812 5814 5806 5798 5791 5786 5782 5780 5778 5774 5770 5766 5764 5763 5760 5758 5756 5753 5751 5748 5747 5745 5744 5742 5741 5741 5740 5738 5738 5737 5737 5736 5735 5734 5733 5732 5732 5731 5730
5807 5809 5811 5814 5815 5816 5808 5805 5803 5804 5811 5807 5801 5795 5792 5788 5784 5780 5777 5774 5771 5769 5766 5763 5760 5757 5755 5753 5750 5749 5746 5745 5743 5742 5740 5740 5739 5738 5737 5736 5736 5735 5735 5734 5733 5732 5732 5731 5730
5809 5803 5804 5809 5811 5812 5808 5794 5799 5808 5809 5802 5798 5796 5792 5789 5786 5783 5781 5778 5775 5772 5768 5764 5761 5758 5754 5752 5750 5748 5746 5744 5743 5741 5740 5739 5738 5738 5737 5736 5735 5735 5734 5734 5733 5732 5731 5731 5730
5800 5789 5782 5799 5808 5810 5801 5782 5802 5809 5806 5798 5797 5795 5792 5789 5788 5786 5784 5780 5777 5773 5769 5766 5763 5759 5755 5753 5750 5747 5745 5744 5742 5741 5740 5739 5738 5738 5737 5736 5735 5735 5734 5733 5732 5731 5730 5729 5728
5775 5769 5774 5787 5804 5805 5797 5788 5801 5808 5805 5798 5797 5795 5792 5788 5787 5787 5786 5783 5779 5776 5772 5767 5764 5760 5757 5754 5750 5748 5745 5744 5742 5741 5740 5739 5738 5737 5736 5736 5735 5735 5734 5733 5732 5730 5729 5728 5727
5765 5768 5771 5776 5796 5798 5791 5790 5798 5804 5802 5798 5796 5794 5792 5789 5789 5790 5787 5784 5780 5777 5773 5768 5764 5761 5758 5754 5751 5747 5745 5744 5743 5741 5740 5739 5738 5737 5736 5736 5735 5734 5733 5732 5732 5730 5729 5727 5726
5777 5772 5768 5779 5797 5793 5788 5788 5794 5799 5799 5796 5794 5793 5792 5791 5791 5790 5788 5784 5780 5775 5772 5767 5763 5761 5757 5754 5750 5746 5744 5744 5743 5742 5741 5739 5739 5738 5737 5736 5735 5734 5733 5733 5732 5729 5727 5725 5725
5776 5770 5769 5780 5795 5791 5783 5784 5793 5797 5798 5798 5795 5793 5792 5789 5788 5787 5786 5784 5780 5776 5773 5769 5765 5762 5760 5757 5754 5750 5747 5746 5745 5743 5742 5741 5740 5739 5738 5737 5736 5735 5734 5732 5731 5729 5726 5725 5724
5773 5770 5772 5775 5784 5786 5781 5774 5784 5794 5798 5798 5798 5796 5794 5792 5787 5785 5784 5782 5781 5776 5774 5772 5767 5763 5761 5758 5753 5750 5746 5745 5743 5742 5742 5742 5742 5740 5739 5739 5737 5736 5735 5733 5731 5730 5727 5724 5723
5765 5782 5781 5778 5767 5757 5769 5749 5772 5782 5787 5792 5794 5794 5793 5793 5790 5787 5784 5781 5780 5778 5775 5771 5767 5763 5760 5757 5753 5749 5746 5743 5744 5745 5744 5743 5742 5741 5740 5739 5738 5736 5735 5733 5732 5731 5729 5726 5722
5776 5787 5782 5775 5765 5753 5757 5749 5758 5775 5777 5786 5794 5797 5796 5794 5791 5788 5785 5782 5781 5778 5774 5771 5767 5763 5761 5758 5754 5750 5747 5746 5746 5745 5744 5743 5742 5741 5741 5740 5738 5736 5735 5734 5732 5731 5729 5727 5724
5785 5774 5764 5752 5746 5735 5749 5746 5751 5765 5778 5788 5795 5797 5797 5794 5792 5788 5785 5782 5779 5776 5773 5770 5765 5762 5761 5758 5754 5751 5748 5746 5744 5743 5742 5741 5741 5741 5740 5739 5738 5737 5735 5734 5732 5731 5729 5728 5726
5775 5749 5726 5725 5717 5724 5745 5745 5751 5778 5789 5793 5795 5795 5796 5794 5790 5785 5781 5778 5775 5772 5771 5768 5764 5760 5758 5755 5753 5751 5749 5746 5744 5743 5742 5741 5740 5740 5740 5739 5737 5736 5735 5734 5733 5731 5729 5728 5726
5764 5753 5724 5716 5713 5722 5739 5740 5762 5786 5793 5798 5797 5795 5793 5790 5787 5783 5779 5776 5774 5771 5768 5765 5762 5758 5756 5753 5751 5750 5749 5746 5745 5744 5742 5741 5741 5741 5741 5739 5738 5736 5735 5734 5732 5730 5729 5728 5726
5756 5750 5751 5726 5722 5719 5728 5746 5768 5787 5788 5790 5791 5790 5787 5786 5784 5781 5778 5776 5772 5769 5766 5764 5760 5757 5754 5752 5750 5748 5747 5745 5743 5743 5742 5741 5741 5740 5739 5738 5737 5735 5734 5733 5732 5730 5728 5727 5726
5768 5751 5734 5721 5708 5709 5726 5736 5747 5770 5777 5782 5783 5782 5782 5782 5780 5778 5775 5773 5770 5768 5765 5762 5759 5755 5752 5750 5749 5747 5745 5744 5742 5740 5739 5739 5739 5738 5737 5737 5736 5734 5733 5732 5730 5729 5727 5725 5724
5753 5747 5733 5719 5720 5707 5710 5730 5769 5773 5778 5779 5780 5781 5780 5778 5777 5775 5773 5771 5768 5765 5762 5759 5756 5754 5750 5747 5745 5744 5743 5741 5739 5738 5737 5737 5737 5736 5735 5734 5733 5732 5731 5730 5728 5726 5725 5723 5722
5765 5752 5738 5727 5719 5714 5714 5733 5779 5778 5780 5780 5778 5778 5778 5776 5774 5772 5770 5766 5763 5759 5756 5755 5753 5751 5748 5745 5742 5740 5739 5738 5736 5735 5734 5734 5734 5733 5732 5731 5730 5729 5728 5727 5725 5723 5721 5719 5718